Flight Track Log - Related Links

Times and Time Zones

All times are in EDT time to prevent confusion due to time zone crossing. See the FLG4057 flight status page for this flight to view local times or setup timezone preferences in your user account.

Time Position Orientation Groundspeed Altitude Reporting Facility
EDT Latitude Longitude Course Direction KTS MPH feet Rate Location/Type
Tue 07:22:27 PM 42.2647 -85.4700 88° East 226 260 4,100  Level Chicago Center
Tue 07:23:28 PM 42.2361 -85.3697 111° Southeast 271 312 6,400 2,353 Climbing Chicago Center
Tue 07:24:09 PM 42.2172 -85.3081 112° Southeast 273 314 8,100 2,317 Climbing Cleveland Center
Tue 07:25:09 PM 42.1883 -85.1967 109° East 297 342 10,300 2,100 Climbing Cleveland Center
Tue 07:26:09 PM 42.1481 -85.0564 111° Southeast 333 383 12,300 1,900 Climbing Cleveland Center
Tue 07:27:09 PM 42.1094 -84.9219 111° Southeast 364 419 14,100 1,350 Climbing Cleveland Center
Tue 07:28:09 PM 42.0683 -84.7878 112° Southeast 385 443 15,000 450 Climbing Cleveland Center
Tue 07:29:09 PM 42.0106 -84.6608 121° Southeast 390 449 15,000  Level Cleveland Center
Tue 07:30:09 PM 41.9497 -84.5508 127° Southeast 384 442 15,000  Level Cleveland Center
Tue 07:31:09 PM 41.8947 -84.4469 125° Southeast 368 423 15,000  Level Cleveland Center
Tue 07:31:45 PM 41.8572 -84.3861 130° Southeast 344 396 15,000  Level Cleveland Center
Tue 07:32:09 PM 41.8378 -84.3431 121° Southeast 355 409 15,000 -448 Level Cleveland Center
Tue 07:32:52 PM 41.8222 -84.2475 102° East 381 438 14,500 -700 Descending Cleveland Center
Tue 07:33:09 PM 41.8186 -84.2250 102° East 346 398 14,300 -1,672 Descending Cleveland Center
Tue 07:33:53 PM 41.8242 -84.1139 86° East 346 398 12,800 -1,700 Descending Cleveland Center
Tue 07:34:09 PM 41.8228 -84.0942 95° East 339 390 12,600 -885 Descending Cleveland Center
Tue 07:34:54 PM 41.8528 -84.0011 67° East 335 386 11,900 -800 Descending Cleveland Center
Tue 07:35:09 PM 41.8572 -83.9847 70° East 322 371 11,800 -1,000 Descending Cleveland Center
Tue 07:35:54 PM 41.9239 -83.9239 34° Northeast 325 374 10,900 -1,000 Descending Cleveland Center
Tue 07:36:09 PM 41.9306 -83.9103 57° Northeast 301 346 10,800 -984 Descending Cleveland Center
Tue 07:36:55 PM 41.9828 -83.8292 49° Northeast 320 368 9,900 -1,234 Descending Cleveland Center
Tue 07:37:56 PM 41.9586 -83.7247 107° East 283 326 8,600 -1,655 Descending Cleveland Center
Tue 07:38:51 PM 41.9525 -83.6378 95° East 270 311 6,700 -1,973 Descending Cleveland Center
Tue 07:39:09 PM 41.9575 -83.6100 76° East 260 299 6,200 -1,600 Descending Cleveland Center
Tue 07:39:51 PM 41.9842 -83.5444 61° Northeast 259 298 5,100 -1,100 Descending Cleveland Center
Tue 07:40:09 PM 41.9931 -83.5308 49° Northeast 247 284 5,100 -689 Level Cleveland Center
Tue 07:40:52 PM 42.0375 -83.5047 24° Northeast 213 245 4,400 -1,000 Descending Cleveland Center
Tue 07:41:09 PM 42.0500 -83.4969 25° Northeast 220 253 4,100 -1,180 Descending Cleveland Center
Tue 07:41:53 PM 42.0906 -83.4653 30° Northeast 210 242 3,200 -1,103 Descending Cleveland Center
Tue 07:42:36 PM 42.1253 -83.4408 28° Northeast 192 221 2,500 -952 Descending FAA TRACON SMA TRACON (SMA)
Tue 07:42:56 PM 42.1378 -83.4319 28° Northeast 176 203 2,200 -878 Descending FAA TRACON SMA TRACON (SMA)
Tue 07:43:17 PM 42.1511 -83.4219 29° Northeast 151 174 1,900 -900 Descending FAA TRACON SMA TRACON (SMA)
Tue 07:43:36 PM 42.1639 -83.4125 29° Northeast 138 159 1,600 -769 Descending FAA TRACON SMA TRACON (SMA)
Tue 07:43:56 PM 42.1731 -83.4053 30° Northeast 127 146 1,400 -750 Descending FAA TRACON SMA TRACON (SMA)
Tue 07:44:16 PM 42.1844 -83.3972 28° Northeast 126 145 1,100 -600 Descending FAA TRACON SMA TRACON (SMA)
Tue 07:44:36 PM 42.1933 -83.3906 29° Northeast 126 145 1,000 -585 Descending FAA TRACON SMA TRACON (SMA)
Tue 07:44:57 PM 42.2056 -83.3817 28° Northeast 127 146 700 -450 Descending FAA TRACON SMA TRACON (SMA)
Tue 07:45:16 PM 42.2125 -83.3764 29° Northeast 90 104 700  Level FAA TRACON SMA TRACON (SMA)
Tue 07:45:36 PM 42.2156 -83.3742 28° Northeast 58 67 700  Level FAA TRACON SMA TRACON (SMA)
Tue 07:45:56 PM 42.2156 -83.3742 151° Southeast 58 67 700  Level FAA TRACON SMA TRACON (SMA)
Tue 07:47:00 PM 42.2124 -83.3534 90° East  Level Estimated

Login

Don't have an account? Register now (free) for customized features, flight alerts, and more!